TimeCST,TemperatureF,Dew PointF,Humidity,Sea Level PressureIn,VisibilityMPH,Wind Direction,Wind SpeedMPH,Gust SpeedMPH,PrecipitationIn,Events,Conditions,WindDirDegrees,DateUTC
12:13 AM,10.4,8.6,92,29.96,5.0,SSW,8.1,-,N/A,,Overcast,200,2013-02-03 06:13:00
12:53 AM,10.9,9.0,92,30.01,4.0,South,6.9,-,0.01,,Overcast,190,2013-02-03 06:53:00
1:53 AM,12.0,9.0,88,29.99,8.0,South,6.9,-,N/A,,Overcast,170,2013-02-03 07:53:00
2:24 AM,12.2,10.4,92,29.92,6.0,South,6.9,-,N/A,,Overcast,190,2013-02-03 08:24:00
2:53 AM,12.9,10.9,92,29.98,3.0,SSW,8.1,-,N/A,,Overcast,210,2013-02-03 08:53:00
3:12 AM,12.2,10.4,92,29.91,2.5,SSW,6.9,-,N/A,,Overcast,210,2013-02-03 09:12:00
3:21 AM,12.2,10.4,92,29.91,2.5,SSW,6.9,-,N/A,,Overcast,210,2013-02-03 09:21:00
3:41 AM,12.2,10.4,92,29.91,2.5,SW,8.1,-,N/A,,Overcast,230,2013-02-03 09:41:00
3:53 AM,12.9,10.9,92,29.98,2.5,SW,6.9,-,N/A,,Overcast,230,2013-02-03 09:53:00
4:35 AM,14.0,12.2,93,29.93,1.8,WSW,9.2,-,N/A,,Overcast,240,2013-02-03 10:35:00
4:53 AM,14.0,12.9,95,30.00,1.5,West,11.5,-,N/A,,Overcast,270,2013-02-03 10:53:00
5:11 AM,15.8,12.2,86,29.94,2.0,West,10.4,-,N/A,,Overcast,280,2013-02-03 11:11:00
5:37 AM,15.8,14.0,93,29.95,2.5,WNW,15.0,-,0.01,,Overcast,300,2013-02-03 11:37:00
5:44 AM,15.8,12.2,86,29.95,3.0,NW,17.3,-,0.01,,Overcast,310,2013-02-03 11:44:00
5:53 AM,16.0,12.9,88,30.01,4.0,NW,15.0,-,0.01,Snow,Light Snow,320,2013-02-03 11:53:00
6:00 AM,15.8,12.2,86,29.95,4.0,NW,17.3,-,0.00,Rain,Light Freezing Rain,320,2013-02-03 12:00:00
6:07 AM,15.8,12.2,86,29.95,5.0,NW,17.3,-,0.00,,Overcast,320,2013-02-03 12:07:00
6:16 AM,15.8,12.2,86,29.95,4.0,NW,15.0,-,0.00,Snow,Light Snow,320,2013-02-03 12:16:00
6:53 AM,16.0,12.9,88,30.03,6.0,NW,12.7,-,0.00,,Overcast,310,2013-02-03 12:53:00
7:53 AM,15.1,9.0,77,30.06,7.0,NW,18.4,-,N/A,,Overcast,310,2013-02-03 13:53:00
8:53 AM,12.9,7.0,77,30.08,10.0,NW,15.0,-,N/A,,Partly Cloudy,310,2013-02-03 14:53:00
9:53 AM,14.0,6.1,71,30.09,10.0,WNW,15.0,-,N/A,,Clear,300,2013-02-03 15:53:00
10:53 AM,14.0,7.0,74,30.11,10.0,WNW,15.0,-,N/A,,Clear,290,2013-02-03 16:53:00
11:53 AM,14.0,6.1,71,30.12,10.0,West,17.3,-,N/A,,Clear,270,2013-02-03 17:53:00
12:53 PM,15.1,7.0,70,30.11,10.0,West,18.4,23.0,N/A,,Mostly Cloudy,280,2013-02-03 18:53:00
1:53 PM,16.0,8.1,71,30.10,10.0,West,15.0,25.3,N/A,,Overcast,270,2013-02-03 19:53:00
2:53 PM,17.1,9.0,71,30.08,10.0,West,16.1,-,N/A,,Overcast,280,2013-02-03 20:53:00
3:53 PM,17.1,9.0,71,30.07,10.0,West,13.8,-,N/A,,Overcast,270,2013-02-03 21:53:00
4:53 PM,18.0,10.0,71,30.05,10.0,West,9.2,-,N/A,,Overcast,270,2013-02-03 22:53:00
5:53 PM,18.0,10.9,74,30.05,10.0,WSW,8.1,-,N/A,,Overcast,250,2013-02-03 23:53:00
6:53 PM,18.0,12.0,78,30.05,10.0,WSW,5.8,-,N/A,,Overcast,250,2013-02-04 00:53:00
7:53 PM,19.0,12.9,77,30.05,10.0,SW,4.6,-,N/A,,Overcast,220,2013-02-04 01:53:00
8:53 PM,19.0,14.0,81,30.05,10.0,South,4.6,-,N/A,,Overcast,180,2013-02-04 02:53:00
9:53 PM,19.0,14.0,81,30.04,10.0,ESE,4.6,-,N/A,,Overcast,120,2013-02-04 03:53:00
10:21 PM,19.4,15.8,86,29.96,2.5,ESE,6.9,-,0.00,Snow,Light Snow,120,2013-02-04 04:21:00
10:31 PM,19.4,15.8,86,29.96,1.2,ESE,6.9,-,0.00,Snow,Light Snow,120,2013-02-04 04:31:00
10:53 PM,19.0,15.1,85,30.01,1.0,SE,8.1,-,0.01,Snow,Light Snow,130,2013-02-04 04:53:00
11:14 PM,19.4,15.8,86,29.93,1.0,SE,8.1,-,0.01,Snow,Light Snow,130,2013-02-04 05:14:00
11:53 PM,19.0,16.0,88,29.96,1.2,ESE,11.5,-,0.03,Snow,Light Snow,120,2013-02-04 05:53:00